FENGYUN 1C DEB

Satellite information

Favourite Embed

Satellite Type and Status

DEBRISIN ORBIT

Key statistics

Satellite FENGYUN 1C DEB at a glance.

Uptime

9714

Days in orbit

Revolutions

≈ 14.2

Per day

Orbit

SSO

Sun Synchronous Orbit

Inclination

98.6

Latest

Satellite identification and parameters

Extended collection of information and parameters for FENGYUN 1C DEB.

Object identification

Identified? True

Debris? True

Object name: FENGYUN 1C DEB

International designator: 1999-025AXK

Object number (NORAD): 30873

Object ID (CCSDS): 30873

Country: PEOPLES REPUBLIC OF CHINA (PRC)

Current information (Y/N): Y

RCS size: SMALL

Orbital parameters

Period: 101.47 minutes

Inclination: 98.6117 deg

SMA: 7206.41 km

Apoapsis: 905.933 km

Periapsis: 750.616 km

RAAN: 346.565 deg

Eccentricy: 0.01077631

Argument of periapsis: 290.1841 deg

Mean anomaly: 68.7771 deg

Mean motion: 14.19137045 rev/day

Mean motion (dot): 0.00000708 rev/day2

B* drag term: 0.00033911121 1/REarth

Two-line elements (TLE)

Creation date: Dec. 12, 2025, 10:14 a.m.

Reference frame: TEME

Reference center: EARTH

Epoch: Dec. 12, 2025, 5:50 a.m. UTC

TLE line 0: 0 FENGYUN 1C DEB

TLE line 1: 1 30873U 99025AXK 25346.24328859 .00000708 00000-0 33911-3 0 9992

TLE line 2: 2 30873 98.6117 346.5650 0107763 290.1841 68.7771 14.19137045971854

Live tracking on map

Real-time ground track for satellite FENGYUN 1C DEB.

In-orbit conjunctions

A list of the most updated potential collisions computed for object FENGYUN 1C DEB.

Target Orbit TCA Probability of collision Miss distance Type
DELTA 1 DEB SSO 2025-06-04 21:09:00 0.0001163947 96.0 (m) DEBRIS
CZ-6A DEB LEO 2025-05-13 22:45:16 0.0001095751 111.0 (m) DEBRIS
CZ-6A DEB SSO 2024-11-09 23:10:40 0.002612993 137.0 (m) DEBRIS

Associated space launch

Chinese polar orbiting meteorological satellite

FENGYUN 1C DEB was lifted into orbit during the mission ‘Long March 4B | Feng Yun 1C’, on board a Long March 4B space rocket.

The launch took place on May 10, 1999, 1:33 a.m. from Launch Complex 7.

For more information about the launch, click the button.

Launch to space Long March 4B | Feng Yun 1C
Long March 4B | Feng Yun 1C

Agency: N/A

Status: Launch Successful

Launch date: May 10, 1999, 1:33 a.m. UTC

Rocket: Long March 4B

Launch pad: Launch Complex 7

Location: Taiyuan Satellite Launch Center, People's Republic of China

...

Latest news about this satellite

There are no fresh news available about this satellite. Check back as we update our databases every day.


Newsletter sign-up

Weekly statistics, charts and insights to help you stay on top of the space industry.